User: anonymous   Login
Location: Fort Wayne
(41.1310°N, 85.1290°W)
Time: 04:08:24
(UTC-04:00)
Language:

OPAL - Orbit

View from above orbital plane
View from above orbital plane
View from above satellite
View from above satellite

Ground track
Ground track

The orbit data is extracted from the following two-line orbital elements,

1 26063U 00004C   16182.79303581 -.00000021  00000-0  12745-4 0  9992
2 26063 100.1894 115.7005 0035985 218.4204 141.4413 14.36622221860924
Epoch (UTC): 30 June 2016 19:01:58
Eccentricity: 0.0035985
inclination: 100.1894°
perigee height: 744 km
apogee height: 795 km
right ascension of ascending node: 115.7005°
argument of perigee: 218.4204°
revolutions per day: 14.36622221
mean anomaly at epoch: 141.4413°
orbit number at epoch: 86092

The dashed part of the orbit path shows where the satellite is in the earth's shadow,  

DLR